Weather History for KTYQ - November, 2012

Change the Weather History Date:

Thursday, November 1, 2012

  Actual Average (KEYE) Record (KEYE)
Temperature  
Mean Temperature 42 °F 50 °F  
Max Temperature 54 °F 59 °F 77 °F (1999)
Min Temperature 30 °F 41 °F 30 °F (2002)
Degree Days  
Heating Degree Days 24 15  
Month to date heating degree days 15  
Since 1 July heating degree days 407  
Cooling Degree Days 0 0  
Month to date cooling degree days 0  
Year to date cooling degree days 1058  
Moisture  
Dew Point 23 °F    
Average Humidity 51    
Maximum Humidity 72    
Minimum Humidity 24    
Precipitation  
Precipitation 0.00 in 0.14 in 0.70 in (1992)
Month to date precipitation 0.14  
Year to date precipitation 34.15  
Sea Level Pressure  
Sea Level Pressure 29.86 in    
Wind  
Wind Speed 7 mph (West)    
Max Wind Speed 16 mph    
Max Gust Speed 24 mph    
Visibility 10 miles    
Events      
T = Trace of Precipitation, MM = Missing Value Source: NWS Daily Summary

Daily Weather History Graph

Daily Weather History Graph

Search for Another Location

Airport or City:

Trip Planner

Search our weather history database for the weather conditions in past years. The results will help you decide how hot, cold, wet, or windy it might be!

Date:

Astronomy

Nov. 01, 2012 Rise Set
Actual Time 8:14 AM EDT 6:41 PM EDT
Civil Twilight 7:46 AM EDT 7:10 PM EDT
Nautical Twilight 7:14 AM EDT 7:42 PM EDT
Astronomical Twilight 6:42 AM EDT 8:13 PM EDT
Moon 8:38 PM EDT (11/1) 10:46 AM EDT (11/1)
Length of Visible Light 11h 23m
Length of Day
10h 27m
Waning Gibbous, 93% of the Moon is Illuminated
Nov 1
Waning Gibbous
Nov 6
Last Quarter
Nov 13
New
Nov 20
First Quarter
Nov 28
Full

Hourly Weather History & Observations

Time (EDT) Temp. Windchill Dew Point Humidity Pressure Visibility Wind Dir Wind Speed Gust Speed Precip Events Conditions
12:15 AM 41.0 °F 37.1 °F 32.0 °F 70% 29.83 in 10.0 mi West 5.8 mph - N/A   Overcast
12:35 AM 41.4 °F 37.6 °F 32.0 °F 69% 29.83 in 10.0 mi West 5.8 mph - N/A   Overcast
12:55 AM 41.9 °F 37.5 °F 31.1 °F 66% 29.83 in 10.0 mi WNW 6.9 mph - N/A   Overcast
1:15 AM 41.5 °F 35.9 °F 29.8 °F 63% 29.83 in 10.0 mi WNW 9.2 mph - N/A   Overcast
1:35 AM 41.2 °F 37.3 °F 28.9 °F 62% 29.83 in 10.0 mi WNW 5.8 mph - N/A   Overcast
1:55 AM 40.6 °F 36.0 °F 28.2 °F 61% 29.83 in 10.0 mi West 6.9 mph - N/A   Overcast
2:15 AM 39.6 °F 34.7 °F 27.5 °F 62% 29.83 in 10.0 mi WNW 6.9 mph - N/A   Overcast
2:35 AM 38.5 °F 34.1 °F 26.6 °F 62% 29.84 in 10.0 mi West 5.8 mph - N/A   Overcast
2:55 AM 36.5 °F 31.8 °F 25.7 °F 65% 29.84 in 10.0 mi West 5.8 mph - N/A   Scattered Clouds
3:15 AM 35.6 °F 29.9 °F 25.5 °F 67% 29.84 in 10.0 mi West 6.9 mph - N/A   Clear
3:35 AM 34.7 °F 28.8 °F 24.8 °F 67% 29.85 in 10.0 mi West 6.9 mph - N/A   Clear
3:55 AM 34.2 °F 28.2 °F 24.6 °F 68% 29.84 in 10.0 mi West 6.9 mph - N/A   Clear
4:15 AM 33.4 °F 27.3 °F 23.9 °F 68% 29.85 in 10.0 mi WNW 6.9 mph - N/A   Clear
4:35 AM 33.3 °F 27.1 °F 23.2 °F 67% 29.85 in 10.0 mi WNW 6.9 mph - N/A   Clear
4:55 AM 32.9 °F 27.5 °F 22.6 °F 66% 29.84 in 10.0 mi WNW 5.8 mph - N/A   Clear
5:15 AM 32.5 °F 27.1 °F 22.1 °F 65% 29.85 in 10.0 mi West 5.8 mph - N/A   Clear
5:35 AM 32.0 °F 24.8 °F 22.1 °F 67% 29.85 in 10.0 mi West 8.1 mph - N/A   Clear
5:55 AM 32.0 °F 24.8 °F 21.9 °F 66% 29.85 in 10.0 mi West 8.1 mph - N/A   Clear
6:15 AM 31.5 °F 24.9 °F 21.6 °F 67% 29.85 in 10.0 mi West 6.9 mph - N/A   Clear
6:35 AM 31.1 °F 23.7 °F 21.6 °F 68% 29.86 in 10.0 mi West 8.1 mph - N/A   Clear
6:55 AM 30.9 °F 23.5 °F 21.2 °F 67% 29.86 in 10.0 mi West 8.1 mph - N/A   Clear
7:35 AM 30.7 °F 24.1 °F 20.5 °F 66% 29.86 in 10.0 mi West 6.9 mph - N/A   Clear
7:55 AM 30.0 °F 23.2 °F 20.5 °F 68% 29.86 in 10.0 mi West 6.9 mph - N/A   Clear
8:15 AM 30.2 °F 22.6 °F 20.8 °F 68% 29.86 in 10.0 mi West 8.1 mph - N/A   Clear
8:35 AM 31.3 °F 23.9 °F 21.4 °F 67% 29.86 in 10.0 mi West 8.1 mph - N/A   Mostly Cloudy
8:55 AM 31.6 °F 23.7 °F 21.2 °F 65% 29.88 in 10.0 mi West 9.2 mph - N/A   Mostly Cloudy
9:15 AM 32.0 °F 24.8 °F 21.2 °F 64% 29.89 in 10.0 mi West 8.1 mph - N/A   Overcast
9:35 AM 32.0 °F 25.6 °F 20.7 °F 63% 29.89 in 10.0 mi WNW 6.9 mph - N/A   Scattered Clouds
9:55 AM 33.3 °F 27.1 °F 21.6 °F 62% 29.89 in 10.0 mi West 6.9 mph - N/A   Clear
10:15 AM 36.3 °F 30.1 °F 21.6 °F 55% 29.89 in 10.0 mi WNW 8.1 mph - N/A   Scattered Clouds
10:35 AM 38.7 °F 31.8 °F 20.7 °F 48% 29.89 in 10.0 mi WNW 10.4 mph - N/A   Clear
10:55 AM 40.5 °F 34.6 °F 20.3 °F 45% 29.90 in 10.0 mi WNW 9.2 mph - N/A   Clear
11:15 AM 41.7 °F 36.1 °F 20.5 °F 43% 29.90 in 10.0 mi WNW 9.2 mph - N/A   Clear
11:35 AM 43.3 °F 38.1 °F 19.8 °F 39% 29.90 in 10.0 mi WNW 9.2 mph - N/A   Clear
11:55 AM 44.6 °F 39.7 °F 20.1 °F 38% 29.90 in 10.0 mi WNW 9.2 mph 16.1 mph N/A   Clear
12:15 PM 46.0 °F 40.6 °F 17.8 °F 32% 29.91 in 10.0 mi West 11.5 mph 16.1 mph N/A   Clear
12:35 PM 47.3 °F - 18.7 °F 32% 29.90 in 10.0 mi WNW 9.2 mph 16.1 mph N/A   Clear
12:55 PM 48.2 °F - 16.9 °F 29% 29.90 in 10.0 mi WNW 9.2 mph 17.3 mph N/A   Clear
1:15 PM 49.3 °F - 16.0 °F 27% 29.89 in 10.0 mi WNW 13.8 mph 19.6 mph N/A   Scattered Clouds
1:55 PM 50.9 °F - 18.5 °F 28% 29.88 in 10.0 mi West 13.8 mph 20.7 mph N/A   Clear
2:15 PM 52.5 °F - 18.1 °F 26% 29.87 in 10.0 mi West 13.8 mph 20.7 mph N/A   Clear
2:35 PM 52.3 °F - 19.4 °F 27% 29.86 in 10.0 mi West 12.7 mph 17.3 mph N/A   Scattered Clouds
2:55 PM 52.9 °F - 19.2 °F 27% 29.86 in 10.0 mi West 12.7 mph 19.6 mph N/A   Scattered Clouds
3:15 PM 53.6 °F - 17.1 °F 24% 29.85 in 10.0 mi West 11.5 mph 19.6 mph N/A   Mostly Cloudy
3:35 PM 50.9 °F - 19.4 °F 29% 29.85 in 10.0 mi West 10.4 mph 18.4 mph N/A   Scattered Clouds
3:55 PM 50.9 °F - 18.1 °F 27% 29.85 in 10.0 mi West 12.7 mph - N/A   Scattered Clouds
4:15 PM 52.0 °F - 19.4 °F 28% 29.84 in 10.0 mi West 16.1 mph 20.7 mph N/A   Scattered Clouds
4:35 PM 52.2 °F - 19.0 °F 27% 29.84 in 10.0 mi West 16.1 mph 24.2 mph N/A   Mostly Cloudy
4:55 PM 51.4 °F - 19.4 °F 28% 29.84 in 10.0 mi West 9.2 mph 19.6 mph N/A   Overcast
5:15 PM 50.7 °F - 21.0 °F 31% 29.84 in 10.0 mi West 9.2 mph - N/A   Mostly Cloudy
5:35 PM 50.9 °F - 20.3 °F 30% 29.84 in 10.0 mi West 10.4 mph 16.1 mph N/A   Overcast
5:55 PM 50.7 °F - 20.1 °F 30% 29.84 in 10.0 mi West 9.2 mph - N/A   Overcast
6:15 PM 50.4 °F - 21.9 °F 33% 29.84 in 10.0 mi West 6.9 mph - N/A   Overcast
6:35 PM 50.0 °F - 22.1 °F 33% 29.84 in 10.0 mi West 6.9 mph - N/A   Overcast
6:55 PM 49.5 °F - 22.5 °F 35% 29.84 in 10.0 mi WSW 5.8 mph - N/A   Overcast
7:15 PM 49.1 °F - 23.5 °F 37% 29.85 in 10.0 mi West 4.6 mph - N/A   Overcast
7:35 PM 48.7 °F - 25.2 °F 40% 29.85 in 10.0 mi West 5.8 mph - N/A   Overcast
7:55 PM 47.8 °F - 25.5 °F 42% 29.86 in 10.0 mi West 4.6 mph - N/A   Overcast
8:15 PM 47.3 °F - 26.4 °F 44% 29.86 in 10.0 mi West 3.5 mph - N/A   Overcast
8:35 PM 46.2 °F - 26.6 °F 46% 29.86 in 10.0 mi Calm Calm - N/A   Overcast
8:55 PM 45.7 °F - 27.3 °F 49% 29.86 in 10.0 mi Calm Calm - N/A   Overcast
9:15 PM 45.7 °F - 28.2 °F 51% 29.87 in 10.0 mi Calm Calm - N/A   Overcast
9:35 PM 45.0 °F 43.5 °F 28.4 °F 52% 29.86 in 10.0 mi NW 3.5 mph - N/A   Overcast
9:55 PM 43.5 °F - 29.5 °F 58% 29.86 in 10.0 mi Calm Calm - N/A   Mostly Cloudy
10:15 PM 42.6 °F - 29.5 °F 60% 29.86 in 10.0 mi Calm Calm - N/A   Mostly Cloudy
10:35 PM 42.1 °F - 29.5 °F 61% 29.86 in 10.0 mi Calm Calm - N/A   Mostly Cloudy
10:55 PM 39.7 °F - 30.6 °F 70% 29.86 in 10.0 mi Calm Calm - N/A   Mostly Cloudy
11:15 PM 39.6 °F 37.4 °F 30.7 °F 71% 29.86 in 10.0 mi SW 3.5 mph - N/A   Mostly Cloudy
11:35 PM 39.7 °F - 30.9 °F 71% 29.86 in 10.0 mi Calm Calm - N/A   Mostly Cloudy
11:55 PM 39.4 °F - 31.1 °F 72% 29.85 in 10.0 mi Calm Calm - N/A   Mostly Cloudy